星链-6185 (STARLINK-6185 )

导读

STARLINK-6185是美国SpaceX公司星链星座中的一颗第二代低轨通信卫星,于2023年6月12日发射入轨。星链项目旨在通过大规模低地球轨道卫星星座,为全球提供高速低延迟宽带互联网服务。作为SpaceX批量部署的卫星之一,它工作在近地轨道,依托星链星座的动态组网能力,可支持偏远地区网络覆盖、移动互联等应用,是星链全球卫星互联网组网进程中的组成部分。

基本信息
目录编号:
56901
目录名称:
STARLINK-6185
国际标识:
2023-083AB
轨道中心:
EARTH
卫星名称:
星链-6185
卫星全名:
星链-6185 (STARLINK-6185 )
卫星状态:
在轨 (已飞行1180 天)
发射日期:
2023-06-12 UTC
国别 :
美国 (US)
星等 :
--
轨道信息
数据来源 国际轨道数据 AOE轨道数据
星历时间 2026-09-04T10:19:20+0800
15小时前
查看轨道信息
2026-09-04T00:00:00+0800
1天前
查看轨道信息
半长轴 6861.199km 6861.183km
偏心率 0.0001207 0.0001101
轨道倾角 43.002° 43.001°
近地点辐角 241.982° 239.924°
升交点赤经 154.385° 156.816°
平近点角 118.091° 272.167°
近地点 482.233km 482.29km
远地点 483.891km 483.802km
周期 94.267分钟 94.267分钟
每日圈数 15.275757 15.275811
详细信息
固有亮度:
5
最大亮度:
2.4
卫星平台:
Starlink v1.5
覆盖范围:
全球
运营商:
太空探索技术公司
运营商所在国:
美国
制造商(研发单位):
太空探索技术公司
制造商所在国:
美国
使用方式:
暂无
卫星简介
星链(Starlink)计划是由太空探索技术公司(SpaceX)提出的一个巨型低轨卫星互联网星座项目,计划在2019年至2024年间在太空搭建由约1.2万颗卫星组成的“星链”网络,其中1584颗将部署在地球上空550千米处的近地轨道,并从2020年开始工作。该卫星仍在工作。
2D轨道图
3D轨道图
轨道高度分析图
轨道倾角分析图
轨道综合分析图
查看轨道综合分析图
交会数据列表
事件ID 空间交会对象 最接近时刻(TCA) 交会距离 交会风险概率(CRP) 交会风险指数(CRI) 操作
CDM_260906-233505-690106-657921
2026-09-06T
23:35:39+0000
0.515 km
远距离
1.290407E-4 高风险 0.77
CDM_260907-010905-690106-657921
2026-09-07T
01:09:48+0000
1.085 km
极远距离
1.286217E-5 中风险 0.57
CDM_260827-181605-690105-963821
2026-08-27T
18:16:08+0000
1.188 km
极远距离
7.054345E-6 低风险 0.52
CDM_260906-162205-690106-268421
IRIS-F2 (62684)
2026-09-06T
16:22:04+0000
1.897 km
极远距离
3.220281E-6 低风险 0.45
CDM_260904-170605-690105-717522
OBJECT K (57175)
2026-09-04T
17:06:17+0000
2.360 km
极远距离
1.91147E-6 低风险 0.41
CDM_260906-220105-690106-657921
2026-09-06T
22:01:30+0000
2.018 km
极远距离
1.856284E-6 低风险 0.4
CDM_260907-024305-690106-657921
2026-09-07T
02:43:57+0000
2.659 km
极远距离
1.082009E-6 低风险 0.36
CDM_260904-182405-690106-470021
2026-09-04T
18:24:45+0000
2.782 km
极远距离
1.039062E-6 低风险 0.35
CDM_260827-195005-690105-963821
2026-08-27T
19:50:17+0000
2.429 km
极远距离
9.896834E-7 极低风险 0.35